Regional Weather Roundup
Issued by NWS

Home | Current Version | Previous Version | Text Only | Print | Product List | Glossary On
Versions: 1 2 3 4 5 6 7 8 9 10 11 12 13 14 15 16 17 18 19 20 21 22 23 24 25 26 27 28 29 30 31 32 33 34 35 36 37 38 39 40 41 42 43 44 45 46 47 48 49 50
000
ASUS45 KPSR 232210
RWRAZ

ARIZONA REGIONAL HOURLY WEATHER ROUNDUP
NATIONAL WEATHER SERVICE PHOENIX AZ
300 PM MST THU OCT 23 2014

NOTE: FAIR INDICATES FEW OR NO CLOUDS BELOW 12,000 FEET WITH NO
SIGNIFICANT WEATHER AND/OR OBSTRUCTIONS TO VISIBILITY.

AZZ001>003-036-232300-
NORTHWEST ARIZONA

CITY           SKY/WX    TMP DP  RH WIND       PRES   REMARKS
BULLHEAD CITY  SUNNY     91  39  16 SW7       29.94F
KINGMAN        SUNNY     82  32  16 SW8G18    30.09F
$$

AZZ004>008-015-016-018-232300-
NORTH CENTRAL ARIZONA

CITY           SKY/WX    TMP DP  RH WIND       PRES   REMARKS
GRAND CANYON   MOSUNNY   70  31  23 SW3       30.29S
PRESCOTT       SUNNY     77  37  23 CALM      30.18F
FLAGSTAFF      MOSUNNY   69  32  25 S10       30.31S
PAYSON         SUNNY     75  34  22 VRB5      30.22F
PAGE           MOSUNNY   76  31  19 NE5       30.14F
$$

AZZ009>014-017-232300-
NORTHEAST ARIZONA

CITY           SKY/WX    TMP DP  RH WIND       PRES   REMARKS
WINSLOW        MOSUNNY   77  36  22 VRB5      30.18F
SAINT JOHNS    SUNNY     74  36  25 CALM      30.21F
WINDOW ROCK    SUNNY     74  30  19 NW5       30.27S
SHOW LOW       SUNNY     72  37  28 SW6       30.29S
$$

AZZ023-232300-
GREATER PHOENIX AREA

CITY           SKY/WX    TMP DP  RH WIND       PRES   REMARKS
PHOENIX        MOSUNNY   93  46  19 VRB6      29.93F
BUCKEYE          N/A     90  48  24 SE7       29.94F
GLENDALE       MOSUNNY   91  48  22 CALM      29.95F
LUKE AFB       SUNNY     90  51  25 CALM      29.93F
DEER VALLEY    SUNNY     90  42  18 CALM      29.95F
SCOTTSDALE     SUNNY     90  46  21 CALM      29.97F
MESA-FALCON    MOSUNNY   91  46  21 S9        29.95
MESA-GATEWAY   MOSUNNY   90  48  24 E3        29.97F
$$

AZZ027-028-232300-
SOUTHWEST MARICOPA COUNTY AND PINAL COUNTY

CITY           SKY/WX    TMP DP  RH WIND       PRES   REMARKS
CASA GRANDE    SUNNY     90  48  24 CALM      29.97S
GILA BEND      CLEAR     94  46  19 VRB3      29.93S
$$

AZZ503-504-507>509-232300-
SOUTHEAST ARIZONA

CITY           SKY/WX    TMP DP  RH WIND       PRES   REMARKS
TUCSON         SUNNY     90  42  18 NW3       30.03F
DAVIS-MONTHAN  SUNNY     88  41  19 E2        30.01F
RYAN FIELD       N/A     91  39  16 NW3       30.01
NOGALES        SUNNY     86  42  21 VRB5      30.09F
SIERRA VISTA   MOSUNNY   81  45  28 CALM      30.15F
DOUGLAS        SUNNY     82  44  26 VRB3      30.12F
SAFFORD        SUNNY     84  45  25 VRB6      30.06F
$$

AZZ020-021-025-026-031-232300-
SOUTHWEST ARIZONA

CITY           SKY/WX    TMP DP  RH WIND       PRES   REMARKS
YUMA           SUNNY     96  44  16 VRB6      29.88F
$$

CAZ031-033-041-043-047-048-061-232300-
SOUTHERN CALIFORNIA

CITY           SKY/WX    TMP DP  RH WIND       PRES   REMARKS
DOWNTOWN L.A.  SUNNY     84  53  34 CALM      29.91F
L.A. AIRPORT   SUNNY     75  62  64 W9        29.93F
SAN DIEGO      MOSUNNY   76  58  53 W9        29.93F
BURBANK        SUNNY     87  44  22 S7        29.93F
ONTARIO        MOSUNNY   90  42  18 W9        29.93F
RIVERSIDE      SUNNY     91  30  11 W8        29.92F
PALM SPRINGS   SUNNY     94  39  14 CALM      29.91F
EL CENTRO NAS  MOSUNNY   94  44  17 VRB3      29.86F
IMPERIAL       SUNNY     95  45  17 VRB3      29.86F
BLYTHE         SUNNY     93  44  18 CALM      29.90F
NEEDLES        SUNNY     92  40  16 E6        29.93F
$$

NVZ020-UTZ003-232300-
SOUTHERN NEVADA-UTAH

CITY           SKY/WX    TMP DP  RH WIND       PRES   REMARKS
LAS VEGAS      MOSUNNY   85  35  16 E6        29.96F
SALT LAKE CITY PTSUNNY   68  36  30 NW8       30.05F
$$

NMZ009-TXZ055-232300-
NEW MEXICO-WEST TEXAS

CITY           SKY/WX    TMP DP  RH WIND       PRES   REMARKS
ALBUQUERQUE    MOSUNNY   74  35  24 W7        30.20F
EL PASO        MOSUNNY   80  46  30 W5        30.12F
$$


........................KEY........................
SKY/WX - SKY CONDITION/WEATHER
TMP    - TEMPERATURE IN FAHRENHEIT
DP     - DEW POINT IN FAHRENHEIT
RH     - RELATIVE HUMIDITY IN PERCENT
WIND   - DIRECTION AND SPEED IN MILES PER HOUR (MPH)
VRB    - VARIABLE WIND DIRECTION
PRES   - MEAN SEA LEVEL PRESSURE IN INCHES OF MERCURY
         F - FALLING PRESSURE   R - RISING PRESSURE
         S - STEADY PRESSURE
VSB    - VISIBILITY IN MILES
HX     - HEAT INDEX IN FAHRENHEIT
WCI    - WIND CHILL INDEX IN FAHRENHEIT
TC     - TEMPERATURE IN CELSIUS WHICH IS ALSO KNOWN AS
         TEMPERATURE IN CENTIGRADE
AFB    - AIR FORCE BASE
         LUKE AFB IS LUKE AIR FORCE BASE
         DAVIS-MONTHAN IS DAVIS-MONTHAN AIR FORCE BASE
NAS    - NAVAL AIR STATION
         EL CENTRO NAS IS EL CENTRO NAVAL AIR STATION
N/A    - NOT AVAILABLE



USA.gov is the U.S. government's official web portal to all federal, state and local government web resources and services.